Pratham
1 41783U 16059A   22188.53012118  .00000279  00000-0  62432-4 0  9995
2 41783  97.9118 229.2798 0034807 109.8732 250.6227 14.63371861308567
TY-1
1 41844U 16066D   22188.82641381  .00007714  00000-0  26090-3 0  9993
2 41844  97.3884 200.7417 0011733 207.3050 278.0827 15.30840188314724
CAS-2T
1 41847U 16066G   22188.65286546  .00000817  00000-0  13123-3 0  9995
2 41847  98.5499 253.3021 0364472 149.3241 212.9819 14.38615859297253
EO-88
1 42017U 17008BX  22188.12238965  .00011353  00000-0  33510-3 0  9995
2 42017  97.2676 253.9557 0005908 158.2104 201.9392 15.35121636300093
CAS-4B
1 42759U 17034B   22188.80677083  .00001527  00000-0  10021-3 0  9994
2 42759  43.0167 220.5045 0008462  48.6217 120.6952 15.12021205279435
CAS-4A
1 42761U 17034D   22188.84131830  .00001448  00000-0  95480-4 0  9991
2 42761  43.0163 219.0832 0008425  51.8384 117.3137 15.12106488279447
NIUSat
1 42766U 17036B   22188.51974043  .00005445  00000-0  21015-3 0  9996
2 42766  97.2005 225.6257 0011643 252.4169 107.5798 15.26621762279860
Aalto 1
1 42775U 17036L   22188.56758606  .00004251  00000-0  16867-3 0  9999
2 42775  97.1962 225.5620 0010633 251.5817 108.4266 15.25834129279842
URSA MAIOR
1 42776U 17036M   22188.40995510  .00004632  00000-0  18041-3 0  9999
2 42776  97.1976 226.1582 0010279 250.5072 109.5057 15.26411412279858
Max Valier Sat
1 42778U 17036P   22188.57040130  .00005328  00000-0  20196-3 0  9995
2 42778  97.2037 228.9818 0008889 249.5850 110.4435 15.27256947279972
Pegasus
1 42784U 17036V   22188.33629981  .00006236  00000-0  22238-3 0  9991
2 42784  97.1976 229.6264 0008231 250.8741 109.1609 15.29212493280057
NUDATSat
1 42787U 17036Y   22188.91215425  .00012308  00000-0  37307-3 0  9992
2 42787  97.2009 234.4324 0007009 229.0463 131.0174 15.34250940280236
SUCHAI 1
1 42788U 17036Z   22188.11276496  .00008867  00000-0  29774-3 0  9994
2 42788  97.1983 231.0948 0007608 243.8474 116.1985 15.31053941280191
SKCUBE
1 42789U 17036AA  22188.38079968  .00006736  00000-0  23236-3 0  9999
2 42789  97.1981 230.8000 0007660 244.6350 115.4099 15.30269464280125
VZLUSAT 1
1 42790U 17036AB  22188.07360204  .00012390  00000-0  37758-3 0  9990
2 42790  97.2008 233.5797 0006816 231.9292 128.1337 15.34079230280251
VENTA 1
1 42791U 17036AC  22188.42110706  .00006661  00000-0  23420-3 0  9995
2 42791  97.1983 230.7106 0007399 245.7752 114.2716 15.29653329280110
Robusta 1B
1 42792U 17036AD  22188.59121140  .00008615  00000-0  29158-3 0  9993
2 42792  97.1981 231.5802 0007242 242.9525 117.0978 15.30807679280207
D-SAT
1 42794U 17036AF  22188.52476724  .00001790  00000-0  15468-3 0  9995
2 42794  97.4508 192.8747 0123514  18.8093 341.7631 14.92719704274477
TechnoSat
1 42829U 17042E   22188.54013762  .00000894  00000-0  93449-4 0  9992
2 42829  97.4193  41.5049 0012636 304.3652  55.6372 14.91901463271088
QIKCOM-1
1 42983U 98067NF  22188.81809252  .00324735  60829-4  39863-3 0  9997
2 42983  51.6251  72.3593 0000914 191.7199 168.3793 16.07405494268203
AO-91
1 43017U 17073E   22188.50018066  .00002294  00000-0  17474-3 0  9993
2 43017  97.6733  81.8732 0249654 122.0020 240.5719 14.81487374250088
PICSAT
1 43132U 18004X   22188.15821126  .00007705  00000-0  25321-3 0  9998
2 43132  97.3711 264.4325 0005706 288.8695  71.1928 15.31817527249422
AO-92
1 43137U 18004AC  22188.44130160  .00006019  00000-0  21186-3 0  9998
2 43137  97.3678 263.4210 0005843 294.0274  66.0354 15.29684965249404
TianYi 2
1 43155U 18008A   22188.84230277  .00004462  00000-0  23771-3 0  9998
2 43155  97.3512 246.5859 0017932  75.9342  49.3767 15.15563510246367
Zhou Enlai
1 43156U 18008B   22188.85887500  .00004429  00000-0  23764-3 0  9992
2 43156  97.3555 246.4835 0015173  76.9159  39.7166 15.15355982246290
TianYi 6
1 43158U 18008D   22188.72460072  .00003581  00000-0  19875-3 0  9997
2 43158  97.3520 244.2911 0014657  77.2280  42.0380 15.14278239246170
S-Net D
1 43186U 18014G   22188.46841850  .00001046  00000-0  93563-4 0  9994
2 43186  97.6560  93.8260 0009824 225.7507 134.2910 14.97959611241915
S-Net B
1 43187U 18014H   22188.46857569  .00001044  00000-0  93358-4 0  9999
2 43187  97.6557  93.7768 0009823 225.5917 134.4502 14.97957604241915
S-Net A
1 43188U 18014J   22188.46886260  .00001048  00000-0  93723-4 0  9990
2 43188  97.6561  93.8415 0009817 225.6528 134.3891 14.97957013241917
S-Net C
1 43189U 18014K   22188.46960146  .00001080  00000-0  96479-4 0  9994
2 43189  97.6557  93.7661 0009803 225.2801 134.7624 14.97954717240465
FMN 1
1 43192U 18015A   22188.59609880  .00016996  00000-0  43916-3 0  9997
2 43192  97.5382 334.2628 0009182 318.9235 171.5975 15.39151084246547
Shaonian Xing
1 43199U 18015H   22188.63881497  .00009856  00000-0  29441-3 0  9999
2 43199  97.5159 329.3216 0011615 334.4525  36.6516 15.34747991246548
SurfSat
1 43614U 18070B   22188.83873156  .00038336  00000-0  53903-3 0  9992
2 43614  93.0294 107.4163 0006812 309.2503  50.8156 15.56534483214239
CP-7 DAVE
1 43615U 18070C   22188.34970695  .00021001  00000-0  31155-3 0  9991
2 43615  93.0277 107.0433 0007604 316.9046  43.1620 15.55130985214121
ELFIN-B
1 43616U 18070D   22188.47546225  .00084126  00000-0  68103-3 0  9994
2 43616  93.0181 108.4334 0002380 283.6939  76.4067 15.70538297214497
ELFIN-A
1 43617U 18070E   22188.50989744  .00103081  00000-0  73777-3 0  9991
2 43617  93.0250 109.8492 0001687 234.9763 125.1351 15.73420312214554
CubeBel-1
1 43666U 18083E   22188.50252190  .00005573  00000-0  23606-3 0  9990
2 43666  97.4187 216.9612 0011135 260.5918 237.8478 15.23513585204533
Changshagaoxin
1 43669U 18083H   22188.83935875  .00005184  00000-0  23036-3 0  9992
2 43669  97.4128 213.2094 0007759 257.5930 276.9327 15.21934673204408
Ten-Koh
1 43677U 18084G   22188.34263747  .00000611  00000-0  67353-4 0  9991
2 43677  97.9668 318.5763 0015316 201.0112 159.0478 14.91136079200647
PO-101
1 43678U 18084H   22188.83482005  .00000151  00000-0  20572-4 0  9997
2 43678  97.9740 322.3422 0008922 211.8475 148.2187 14.92194889200898
IRVINE 01
1 43693U 18088D   22188.30463225  .00021042  00000-0  54299-3 0  9997
2 43693  85.0290 297.3755 0011510  45.2587 314.9599 15.38961677203275
QO-100
1 43700U 18090A   22188.45740351  .00000158  00000-0  00000+0 0  9995
2 43700   0.0182  49.1099 0001230  69.2102 357.5268  1.00270225 13475
Reaktor Hello World
1 43743U 18096AA  22188.48885326  .00007865  00000-0  23812-3 0  9995
2 43743  97.3521 268.2754 0014003 353.8546   6.2523 15.34352230201038
MinXSS-2
1 43758U 18099A   22188.49589832  .00001245  00000-0  11172-3 0  9990
2 43758  97.6240 255.9306 0014554 192.4075 167.6791 14.97453401196106
AO-95
1 43770U 18099N   22188.18182876  .00001439  00000-0  13144-3 0  9993
2 43770  97.6195 254.0196 0013704 203.8807 156.1781 14.96504746195965
RANGE-B
1 43772U 18099Q   22188.50208793  .00001429  00000-0  12848-3 0  9997
2 43772  97.6311 256.0534 0013413 189.2368 170.8610 14.97154880196035
RANGE-A
1 43773U 18099R   22188.17626582  .00000958  00000-0  90148-4 0  9997
2 43773  97.6119 252.8656 0013094 190.7771 169.3171 14.96080685195945
MOVE-II
1 43780U 18099Y   22188.72550714  .00002907  00000-0  25180-3 0  9998
2 43780  97.6227 255.7195 0012866 194.8679 165.2167 14.97836225196098
SNUSat 2
1 43782U 18099AA  22188.42728543  .00000768  00000-0  72195-4 0  9996
2 43782  97.6204 254.7265 0012054 187.3124 172.7923 14.96672170196025
SnugLite
1 43784U 18099AC  22188.39520113  .00001949  00000-0  17449-3 0  9999
2 43784  97.6162 254.3334 0014408 195.0251 165.0544 14.96888597196043
ITASat 1
1 43786U 18099AE  22188.44067381  .00000876  00000-0  81713-4 0  9994
2 43786  97.6223 255.2016 0014462 196.3793 163.6964 14.96642858196043
EAGLET 1
1 43790U 18099AJ  22188.73475379  .00001627  00000-0  14689-3 0  9993
2 43790  97.6219 256.0229 0012673 196.2092 163.8726 14.96811090195820
ESEO
1 43792U 18099AL  22188.74408054  .00000862  00000-0  81342-4 0  9993
2 43792  97.6175 255.2214 0012643 194.1635 165.9234 14.96223391195867
CSIM
1 43793U 18099AM  22188.42262050  .00001952  00000-0  16773-3 0  9999
2 43793  97.6260 256.3365 0011951 185.7596 174.3492 14.98529972195872
Astrocast 0.1
1 43798U 18099AS  22188.44313818  .00001672  00000-0  14739-3 0  9994
2 43798  97.6221 256.2273 0012239 176.4303 183.7009 14.97718959196103
JO-97
1 43803U 18099AX  22188.11758968  .00001663  00000-0  14870-3 0  9990
2 43803  97.6181 254.6469 0014513 195.9981 164.0784 14.97150973196017
Suomi 100
1 43804U 18099AY  22188.40406251  .00002113  00000-0  18798-3 0  9992
2 43804  97.6187 254.8443 0014403 193.5376 166.5461 14.97056646196064
Al Farabi 2
1 43805U 18099AZ  22188.85127933  .00001520  00000-0  13465-3 0  9996
2 43805  97.6185 255.7854 0014285 193.0175 167.0680 14.97631954196159
CHOMPTT
1 43855U 18104G   22188.55161953  .00004898  00000-0  17828-3 0  9993
2 43855  85.0348  37.7476 0016153 155.5685 204.6329 15.27817175197793
ISAT
1 43879U 18111D   22188.30216450  .00001552  00000-0  13595-3 0  9994
2 43879  97.6653  93.5551 0010503 252.5580 107.4495 14.98095441192640
UWE-4
1 43880U 18111E   22188.70415592  .00001608  00000-0  14014-3 0  9997
2 43880  97.6684  94.6627 0009712 251.8322 108.1843 14.98251239190730
Sparrow
1 43881U 18111F   22187.78444562  .00001053  00000-0  93155-4 0  9992
2 43881  97.6684  93.9934 0010501 254.1882 105.8183 14.98394585192600
Lume 1
1 43908U 18111AJ  22188.64700827  .00006428  00000-0  21812-3 0  9998
2 43908  97.1894  75.8209 0018595   8.5543 351.6011 15.30686293196486
